When you browse on this site, cookies collect data to enhance your experience and personalize the content and advertising you see.
Visit our Privacy Policy to learn more. By continuing to use the site, you agree to this use of cookies and data.
  • En España
  • Lista de países
  • Para 7 días
  • Temperatura del agua
  • El tiempo en el mapa
  • Informadores
  • user-avatar
    Iniciar sesión

    Tiempo cada hora Chichester

    Hoy, 13 Diciembre, Viernes

    Tiempo Temperatura Precipitaciones Viento Presión Humedad
    00:00 +6°C° 0 mm 10 mps 728 mmHg 89%
    01:00 +6°C° 0.2 mm 11 mps 728 mmHg 86%
    02:00 +4°C° 0.2 mm 12 mps 728 mmHg 82%
    03:00 +4°C° 0.2 mm 13 mps 728 mmHg 79%
    04:00 +4°C° 0 mm 13 mps 729 mmHg 79%
    05:00 +3°C° 0 mm 13 mps 730 mmHg 80%
    06:00 +3°C° 0 mm 13 mps 731 mmHg 81%
    07:00 +3°C° 0 mm 13 mps 732 mmHg 79%
    08:00 +3°C° 0 mm 13 mps 733 mmHg 77%
    09:00 +3°C° 0 mm 12 mps 734 mmHg 75%
    10:00 +3°C° 0 mm 12 mps 735 mmHg 74%
    11:00 +4°C° 0 mm 12 mps 736 mmHg 72%
    12:00 +4°C° 0 mm 12 mps 737 mmHg 70%
    13:00 +4°C° 0 mm 12 mps 738 mmHg 71%
    14:00 +4°C° 0 mm 11 mps 738 mmHg 71%
    15:00 +4°C° 0 mm 11 mps 739 mmHg 72%
    16:00 +3°C° 0 mm 10 mps 739 mmHg 73%
    17:00 +3°C° 0 mm 10 mps 739 mmHg 74%
    18:00 +2°C° 0 mm 9 mps 739 mmHg 75%
    19:00 +2°C° 0.3 mm 8 mps 738 mmHg 80%
    20:00 +4°C° 0.3 mm 6 mps 737 mmHg 85%
    21:00 +5°C° 0.3 mm 5 mps 737 mmHg 89%
    22:00 +5°C° 0.5 mm 7 mps 736 mmHg 87%
    23:00 +6°C° 0.5 mm 9 mps 736 mmHg 85%

    Mañana, 14 Diciembre, Sábado

    Tiempo Temperatura Precipitaciones Viento Presión Humedad
    00:00 +7°C° 0.5 mm 11 mps 735 mmHg 83%
    01:00 +7°C° 0 mm 11 mps 736 mmHg 81%
    02:00 +6°C° 0 mm 11 mps 737 mmHg 79%
    03:00 +4°C° 0 mm 11 mps 738 mmHg 77%
    04:00 +3°C° 0 mm 11 mps 739 mmHg 79%
    05:00 +3°C° 0 mm 10 mps 740 mmHg 80%
    06:00 +2°C° 0 mm 9 mps 741 mmHg 82%
    07:00 +2°C° 0.4 mm 9 mps 741 mmHg 83%
    08:00 +2°C° 0.4 mm 9 mps 742 mmHg 85%
    09:00 +2°C° 0.4 mm 8 mps 742 mmHg 87%
    10:00 +3°C° 0.1 mm 9 mps 743 mmHg 82%
    11:00 +3°C° 0.1 mm 10 mps 743 mmHg 76%
    12:00 +4°C° 0.1 mm 11 mps 744 mmHg 71%
    13:00 +5°C° 0 mm 10 mps 744 mmHg 70%
    14:00 +3°C° 0 mm 9 mps 744 mmHg 68%
    15:00 +4°C° 0 mm 8 mps 745 mmHg 67%
    16:00 +5°C° 0 mm 9 mps 744 mmHg 70%
    17:00 +5°C° 0 mm 9 mps 743 mmHg 73%
    18:00 +5°C° 0 mm 9 mps 742 mmHg 75%
    19:00 +6°C° 0.6 mm 11 mps 742 mmHg 79%
    20:00 +5°C° 0.6 mm 12 mps 741 mmHg 82%
    21:00 +7°C° 0.6 mm 13 mps 740 mmHg 85%
    22:00 +5°C° 0.4 mm 13 mps 741 mmHg 82%
    23:00 +4°C° 0.4 mm 12 mps 741 mmHg 79%

    Pasado mañana, 15 Diciembre, Domingo

    Tiempo Temperatura Precipitaciones Viento Presión Humedad
    00:00 +3°C° 0.4 mm 12 mps 741 mmHg 76%
    01:00 +3°C° 0.1 mm 13 mps 742 mmHg 73%
    02:00 +3°C° 0.1 mm 13 mps 742 mmHg 70%
    03:00 +1°C° 0.1 mm 13 mps 743 mmHg 67%
    04:00 +2°C° 0 mm 12 mps 744 mmHg 69%
    05:00 +2°C° 0 mm 10 mps 745 mmHg 71%
    06:00 +2°C° 0 mm 9 mps 746 mmHg 72%
    07:00 +2°C° 0.2 mm 9 mps 746 mmHg 73%
    08:00 +3°C° 0.2 mm 10 mps 747 mmHg 74%
    09:00 +5°C° 0.2 mm 10 mps 747 mmHg 74%
    10:00 +5°C° 0.4 mm 10 mps 747 mmHg 73%
    11:00 +6°C° 0.4 mm 10 mps 748 mmHg 71%
    12:00 +6°C° 0.4 mm 11 mps 748 mmHg 69%
    13:00 +6°C° 0.2 mm 10 mps 748 mmHg 71%
    14:00 +6°C° 0.2 mm 10 mps 747 mmHg 72%
    15:00 +6°C° 0.2 mm 10 mps 747 mmHg 74%
    16:00 +6°C° 0.3 mm 10 mps 747 mmHg 76%
    17:00 +6°C° 0.3 mm 10 mps 747 mmHg 77%
    18:00 +6°C° 0.3 mm 10 mps 747 mmHg 79%
    19:00 +5°C° 1.2 mm 10 mps 747 mmHg 82%
    20:00 +5°C° 1.2 mm 10 mps 747 mmHg 84%
    21:00 +5°C° 1.2 mm 10 mps 747 mmHg 87%
    22:00 +5°C° 0.3 mm 10 mps 747 mmHg 84%
    23:00 +5°C° 0.3 mm 9 mps 747 mmHg 81%

    16 Diciembre, Lunes

    Tiempo Temperatura Precipitaciones Viento Presión Humedad
    00:00 +5°C° 0.3 mm 9 mps 747 mmHg 78%
    01:00 +5°C° 0.2 mm 9 mps 747 mmHg 77%
    02:00 +5°C° 0.2 mm 9 mps 747 mmHg 77%
    03:00 +5°C° 0.2 mm 9 mps 748 mmHg 77%
    04:00 +5°C° 0.1 mm 9 mps 748 mmHg 77%
    05:00 +5°C° 0.1 mm 9 mps 748 mmHg 78%
    06:00 +5°C° 0.1 mm 9 mps 748 mmHg 78%
    07:00 +6°C° 0.1 mm 9 mps 748 mmHg 78%
    08:00 +6°C° 0.1 mm 8 mps 748 mmHg 78%
    09:00 +6°C° 0.1 mm 8 mps 749 mmHg 79%
    10:00 +6°C° 0.1 mm 7 mps 749 mmHg 78%
    11:00 +8°C° 0.1 mm 7 mps 749 mmHg 76%
    12:00 +8°C° 0.1 mm 6 mps 749 mmHg 75%
    13:00 +8°C° 0 mm 5 mps 749 mmHg 76%
    14:00 +7°C° 0 mm 4 mps 749 mmHg 78%
    15:00 +8°C° 0 mm 3 mps 749 mmHg 79%
    16:00 +7°C° 0 mm 3 mps 749 mmHg 79%
    17:00 +7°C° 0 mm 2 mps 749 mmHg 79%
    18:00 +6°C° 0 mm 2 mps 750 mmHg 80%
    19:00 +6°C° 0 mm 2 mps 750 mmHg 79%
    20:00 +5°C° 0 mm 2 mps 750 mmHg 78%
    21:00 +5°C° 0 mm 2 mps 751 mmHg 78%
    22:00 +5°C° 0 mm 2 mps 750 mmHg 79%
    23:00 +5°C° 0 mm 2 mps 750 mmHg 80%

    17 Diciembre, Martes

    Tiempo Temperatura Precipitaciones Viento Presión Humedad
    00:00 +4°C° 0 mm 3 mps 750 mmHg 81%
    01:00 +4°C° 0 mm 3 mps 750 mmHg 82%
    02:00 +4°C° 0 mm 3 mps 750 mmHg 84%
    03:00 +4°C° 0 mm 3 mps 750 mmHg 85%
    04:00 +4°C° 0 mm 3 mps 751 mmHg 86%
    05:00 +3°C° 0 mm 3 mps 751 mmHg 87%
    06:00 +3°C° 0 mm 3 mps 751 mmHg 88%
    07:00 +3°C° 0 mm 3 mps 751 mmHg 86%
    08:00 +3°C° 0 mm 3 mps 751 mmHg 85%
    09:00 +3°C° 0 mm 4 mps 752 mmHg 83%
    10:00 +4°C° 0 mm 4 mps 752 mmHg 81%
    11:00 +4°C° 0 mm 4 mps 752 mmHg 78%
    12:00 +5°C° 0 mm 4 mps 752 mmHg 76%
    13:00 +4°C° 0 mm 4 mps 752 mmHg 77%
    14:00 +4°C° 0 mm 4 mps 752 mmHg 77%
    15:00 +4°C° 0 mm 4 mps 752 mmHg 78%
    16:00 +4°C° 0 mm 4 mps 753 mmHg 79%
    17:00 +3°C° 0 mm 3 mps 753 mmHg 81%
    18:00 +3°C° 0 mm 3 mps 753 mmHg 82%
    19:00 +2°C° 0 mm 3 mps 754 mmHg 82%
    20:00 +2°C° 0 mm 3 mps 754 mmHg 83%
    21:00 +2°C° 0 mm 3 mps 755 mmHg 83%
    22:00 +1°C° 0 mm 3 mps 755 mmHg 83%
    23:00 +2°C° 0 mm 2 mps 755 mmHg 84%

    18 Diciembre, Miércoles

    Tiempo Temperatura Precipitaciones Viento Presión Humedad
    00:00 +1°C° 0 mm 2 mps 756 mmHg 84%
    01:00 +1°C° 0 mm 2 mps 756 mmHg 83%
    02:00 +1°C° 0 mm 2 mps 756 mmHg 81%
    03:00 +2°C° 0 mm 1 mps 756 mmHg 80%
    04:00 +2°C° 0 mm 1 mps 756 mmHg 79%
    05:00 +2°C° 0 mm 1 mps 757 mmHg 78%
    06:00 +3°C° 0 mm 1 mps 757 mmHg 76%
    07:00 +3°C° 0 mm 1 mps 757 mmHg 75%
    08:00 +3°C° 0 mm 1 mps 758 mmHg 74%
    09:00 +3°C° 0 mm 2 mps 758 mmHg 73%
    10:00 +4°C° 0 mm 2 mps 758 mmHg 71%
    11:00 +5°C° 0 mm 2 mps 758 mmHg 69%
    12:00 +5°C° 0 mm 3 mps 758 mmHg 67%
    13:00 +4°C° 0 mm 3 mps 758 mmHg 70%
    14:00 +4°C° 0 mm 3 mps 758 mmHg 72%
    15:00 +4°C° 0 mm 4 mps 757 mmHg 75%
    16:00 +3°C° 0 mm 4 mps 757 mmHg 77%
    17:00 +3°C° 0 mm 4 mps 757 mmHg 80%
    18:00 +1°C° 0 mm 5 mps 757 mmHg 82%
    19:00 +1°C° 0 mm 5 mps 756 mmHg 84%
    20:00 +1°C° 0 mm 6 mps 756 mmHg 85%
    21:00 +1°C° 0 mm 6 mps 756 mmHg 87%
    22:00 0°C° 0 mm 7 mps 755 mmHg 87%
    23:00 0°C° 0 mm 7 mps 755 mmHg 87%
    Mostrar más